| time (UTC) | temp F | wind direction | speed MPH | gust MPH | rain 1hr in | rain 24hr in | rain mn in | humidity % | barometer mb |
| 20260506221809 | 67 | 78 | 5.0 | 9.0 | 0.00 | 0.17 | 0.17 | 81 | 1008.7 |
| 20260506221259 | 67 | 53 | 2.0 | 7.0 | 0.00 | 0.17 | 0.17 | 81 | 1008.5 |
| 20260506220526 | 67 | 69 | 2.0 | 8.0 | 0.00 | 0.17 | 0.17 | 81 | 1008.5 |
| 20260506220136 | 66 | 83 | 6.0 | 11.0 | 0.00 | 0.17 | 0.17 | 81 | 1008.6 |
| 20260506214725 | 66 | 84 | 5.0 | 11.0 | 0.00 | 0.17 | 0.17 | 81 | 1008.7 |
| 20260506214129 | 66 | 80 | 5.0 | 9.0 | 0.00 | 0.17 | 0.17 | 81 | 1008.7 |
| 20260506213522 | 66 | 84 | 6.0 | 12.0 | 0.00 | 0.17 | 0.17 | 81 | 1008.4 |
| 20260506213437 | 67 | 72 | 4.0 | 12.0 | 0.00 | 0.17 | 0.17 | 81 | 1008.4 |
| 20260506212317 | 67 | 77 | 6.0 | 15.0 | 0.00 | 0.17 | 0.17 | 81 | 1008.3 |
| 20260506211717 | 66 | 86 | 7.0 | 12.0 | 0.00 | 0.17 | 0.17 | 81 | 1008.3 |
| 20260506211117 | 66 | 82 | 6.0 | 13.0 | 0.00 | 0.17 | 0.17 | 81 | 1008.2 |
| 20260506210616 | 66 | 75 | 7.0 | 14.0 | 0.00 | 0.17 | 0.17 | 80 | 1008.1 |
| 20260506205917 | 66 | 86 | 8.0 | 14.0 | 0.00 | 0.17 | 0.17 | 81 | 1008.0 |
| 20260506205327 | 66 | 80 | 6.0 | 14.0 | 0.00 | 0.17 | 0.17 | 80 | 1008.0 |
| 20260506204717 | 66 | 87 | 8.0 | 12.0 | 0.00 | 0.17 | 0.17 | 81 | 1008.2 |
| 20260506204140 | 66 | 84 | 7.0 | 14.0 | 0.00 | 0.17 | 0.17 | 80 | 1008.1 |
| 20260506203529 | 66 | 81 | 8.0 | 14.0 | 0.00 | 0.17 | 0.17 | 80 | 1008.1 |
| 20260506202918 | 65 | 81 | 6.0 | 14.0 | 0.00 | 0.17 | 0.17 | 80 | 1008.1 |
| 20260506202610 | 65 | 84 | 8.0 | 17.0 | 0.00 | 0.17 | 0.17 | 80 | 1008.1 |
| 20260506201811 | 65 | 84 | 12.0 | 18.0 | 0.00 | 0.17 | 0.17 | 80 | 1008.0 |
| 20260506200148 | 65 | 86 | 9.0 | 17.0 | 0.00 | 0.17 | 0.17 | 80 | 1008.1 |
| 20260506195418 | 65 | 83 | 9.0 | 18.0 | 0.00 | 0.17 | 0.17 | 78 | 1008.1 |
| 20260506194801 | 65 | 86 | 10.0 | 18.0 | 0.00 | 0.17 | 0.17 | 79 | 1008.2 |
| 20260506194223 | 65 | 83 | 10.0 | 22.0 | 0.00 | 0.17 | 0.17 | 80 | 1008.2 |
| 20260506193526 | 65 | 93 | 16.0 | 22.0 | 0.00 | 0.17 | 0.17 | 80 | 1008.2 |
| 20260506192917 | 66 | 89 | 11.0 | 20.0 | 0.00 | 0.17 | 0.17 | 77 | 1008.4 |
| 20260506192524 | 65 | 86 | 11.0 | 20.0 | 0.00 | 0.17 | 0.17 | 76 | 1008.3 |
| 20260506192154 | 65 | 78 | 9.0 | 15.0 | 0.00 | 0.17 | 0.17 | 71 | 1008.3 |
| 20260506191340 | 63 | 78 | 8.0 | 16.0 | 0.00 | 0.17 | 0.17 | 63 | 1008.5 |
| 20260506185929 | 63 | 86 | 9.0 | 19.0 | 0.00 | 0.17 | 0.17 | 53 | 1008.4 |
| 20260506185318 | 63 | 87 | 8.0 | 19.0 | 0.00 | 0.17 | 0.17 | 35 | 1008.5 |
| 20260506184719 | 63 | 81 | 12.0 | 17.0 | 0.00 | 0.17 | 0.17 | 25 | 1008.6 |
| 20260506184116 | 63 | 61 | 9.0 | 14.0 | 0.00 | 0.17 | 0.17 | 24 | 1008.5 |
| 20260506183518 | 62 | 79 | 8.0 | 17.0 | 0.00 | 0.17 | 0.17 | 25 | 1008.8 |
| 20260506182920 | 61 | 74 | 7.0 | 12.0 | 0.00 | 0.17 | 0.17 | 25 | 1008.9 |
| 20260506182318 | 61 | 54 | 7.0 | 12.0 | 0.00 | 0.17 | 0.17 | 26 | 1008.9 |
| 20260506181717 | 61 | 71 | 8.0 | 12.0 | 0.00 | 0.17 | 0.17 | 26 | 1009.1 |
| 20260506181116 | 60 | 64 | 7.0 | 14.0 | 0.00 | 0.17 | 0.17 | 26 | 1009.1 |
| 20260506180520 | 60 | 65 | 8.0 | 13.0 | 0.00 | 0.17 | 0.17 | 27 | 1009.2 |
| 20260506175917 | 60 | 69 | 8.0 | 18.0 | 0.00 | 0.17 | 0.17 | 27 | 1009.2 |
| 20260506175323 | 60 | 76 | 10.0 | 18.0 | 0.00 | 0.17 | 0.17 | 27 | 1009.3 |
| 20260506174717 | 60 | 74 | 8.0 | 18.0 | 0.00 | 0.17 | 0.17 | 27 | 1009.3 |
| 20260506174119 | 60 | 73 | 10.0 | 18.0 | 0.00 | 0.17 | 0.17 | 27 | 1009.3 |
| 20260506173535 | 60 | 64 | 8.0 | 17.0 | 0.00 | 0.17 | 0.17 | 27 | 1009.2 |
| 20260506172921 | 60 | 73 | 10.0 | 17.0 | 0.00 | 0.17 | 0.17 | 27 | 1009.1 |
| 20260506172321 | 60 | 63 | 8.0 | 18.0 | 0.00 | 0.17 | 0.17 | 27 | 1009.1 |
| 20260506171718 | 60 | 55 | 8.0 | 18.0 | 0.00 | 0.17 | 0.17 | 27 | 1009.1 |
| 20260506171121 | 60 | 73 | 9.0 | 16.0 | 0.00 | 0.17 | 0.17 | 27 | 1009.0 |
| 20260506170517 | 60 | 50 | 8.0 | 14.0 | 0.00 | 0.17 | 0.17 | 27 | 1009.0 |
| 20260506165926 | 60 | 54 | 8.0 | 17.0 | 0.00 | 0.17 | 0.17 | 27 | 1009.1 |
| 20260506165318 | 59 | 55 | 9.0 | 17.0 | 0.01 | 0.17 | 0.17 | 28 | 1009.2 |
| 20260506164719 | 60 | 56 | 7.0 | 17.0 | 0.01 | 0.17 | 0.17 | 28 | 1009.2 |
| 20260506164120 | 60 | 62 | 8.0 | 17.0 | 0.02 | 0.17 | 0.17 | 28 | 1009.3 |
| 20260506163522 | 60 | 55 | 8.0 | 15.0 | 0.02 | 0.17 | 0.17 | 28 | 1009.2 |
| 20260506162917 | 60 | 50 | 9.0 | 16.0 | 0.02 | 0.17 | 0.17 | 28 | 1009.4 |
| 20260506162316 | 60 | 57 | 10.0 | 21.0 | 0.02 | 0.17 | 0.17 | 28 | 1009.3 |
| 20260506161722 | 60 | 43 | 10.0 | 23.0 | 0.03 | 0.17 | 0.17 | 28 | 1009.4 |
| 20260506161117 | 60 | 32 | 8.0 | 17.0 | 0.03 | 0.17 | 0.17 | 27 | 1009.3 |
| 20260506160517 | 60 | 37 | 6.0 | 20.0 | 0.04 | 0.17 | 0.17 | 28 | 1009.0 |
| 20260506155937 | 60 | 29 | 10.0 | 20.0 | 0.05 | 0.17 | 0.17 | 28 | 1008.8 |
| 20260506155322 | 60 | 29 | 11.0 | 18.0 | 0.05 | 0.16 | 0.16 | 28 | 1008.7 |
| 20260506154720 | 60 | 31 | 9.0 | 17.0 | 0.06 | 0.16 | 0.16 | 28 | 1009.0 |
| 20260506154122 | 60 | 42 | 9.0 | 19.0 | 0.06 | 0.15 | 0.15 | 28 | 1009.4 |
| 20260506153527 | 60 | 31 | 8.0 | 16.0 | 0.07 | 0.15 | 0.15 | 28 | 1009.8 |
| 20260506152917 | 60 | 48 | 9.0 | 16.0 | 0.07 | 0.15 | 0.15 | 29 | 1009.9 |
| 20260506152317 | 59 | 48 | 9.0 | 14.0 | 0.08 | 0.15 | 0.15 | 29 | 1010.1 |
| 20260506151731 | 59 | 36 | 7.0 | 14.0 | 0.07 | 0.14 | 0.14 | 29 | 1010.1 |
| 20260506151129 | 59 | 40 | 8.0 | 13.0 | 0.08 | 0.14 | 0.14 | 29 | 1010.2 |
| 20260506150519 | 59 | 37 | 6.0 | 16.0 | 0.07 | 0.13 | 0.13 | 29 | 1010.1 |
| 20260506145918 | 59 | 36 | 7.0 | 19.0 | 0.07 | 0.12 | 0.12 | 30 | 1010.3 |
| 20260506145321 | 59 | 31 | 8.0 | 19.0 | 0.07 | 0.11 | 0.11 | 30 | 1010.3 |
| 20260506144726 | 59 | 41 | 8.0 | 14.0 | 0.06 | 0.10 | 0.10 | 30 | 1010.1 |
| 20260506144116 | 59 | 35 | 9.0 | 16.0 | 0.06 | 0.09 | 0.09 | 30 | 1010.1 |
| 20260506143524 | 59 | 34 | 7.0 | 17.0 | 0.06 | 0.08 | 0.08 | 30 | 1009.9 |
| 20260506142919 | 59 | 39 | 10.0 | 16.0 | 0.06 | 0.08 | 0.08 | 31 | 1010.0 |
| 20260506142316 | 59 | 35 | 6.0 | 14.0 | 0.06 | 0.07 | 0.07 | 31 | 1010.0 |
| 20260506141801 | 59 | 45 | 6.0 | 14.0 | 0.06 | 0.07 | 0.07 | 31 | 1010.1 |
| 20260506141116 | 59 | 40 | 7.0 | 13.0 | 0.05 | 0.06 | 0.06 | 32 | 1010.0 |
| 20260506140519 | 59 | 33 | 6.0 | 12.0 | 0.05 | 0.06 | 0.06 | 32 | 1010.1 |
| 20260506135927 | 59 | 33 | 5.0 | 13.0 | 0.05 | 0.05 | 0.05 | 33 | 1009.9 |
| 20260506135323 | 59 | 46 | 7.0 | 13.0 | 0.04 | 0.04 | 0.04 | 33 | 1009.9 |
| 20260506134825 | 59 | 32 | 6.0 | 11.0 | 0.04 | 0.04 | 0.04 | 33 | 1010.1 |
| 20260506134131 | 59 | 49 | 6.0 | 11.0 | 0.03 | 0.03 | 0.03 | 34 | 1010.1 |
| 20260506133518 | 59 | 44 | 4.0 | 10.0 | 0.02 | 0.02 | 0.02 | 34 | 1010.1 |
| 20260506132921 | 59 | 28 | 6.0 | 13.0 | 0.02 | 0.02 | 0.02 | 35 | 1010.1 |
| 20260506132319 | 59 | 40 | 6.0 | 10.0 | 0.01 | 0.01 | 0.01 | 35 | 1010.1 |
| 20260506131740 | 59 | 28 | 3.0 | 10.0 | 0.01 | 0.01 | 0.01 | 35 | 1010.1 |
| 20260506131116 | 59 | 36 | 6.0 | 11.0 | 0.01 | 0.01 | 0.01 | 36 | 1010.2 |
| 20260506130518 | 59 | 39 | 4.0 | 12.0 | 0.01 | 0.01 | 0.01 | 37 | 1010.4 |
| 20260506125935 | 58 | 37 | 5.0 | 12.0 | 0.00 | 0.00 | 0.00 | 39 | 1010.3 |
| 20260506125317 | 58 | 39 | 4.0 | 9.0 | 0.00 | 0.00 | 0.00 | 40 | 1010.3 |
| 20260506124718 | 58 | 30 | 4.0 | 11.0 | 0.00 | 0.00 | 0.00 | 41 | 1010.3 |
| 20260506124133 | 58 | 46 | 6.0 | 14.0 | 0.00 | 0.00 | 0.00 | 43 | 1010.4 |
| 20260506123522 | 58 | 51 | 5.0 | 14.0 | 0.00 | 0.00 | 0.00 | 45 | 1010.6 |
| 20260506122916 | 58 | 49 | 5.0 | 11.0 | 0.00 | 0.00 | 0.00 | 48 | 1010.6 |
| 20260506122316 | 58 | 49 | 4.0 | 13.0 | 0.00 | 0.00 | 0.00 | 51 | 1010.6 |
| 20260506121719 | 58 | 47 | 7.0 | 14.0 | 0.00 | 0.00 | 0.00 | 57 | 1010.5 |
| 20260506121119 | 59 | 28 | 6.0 | 14.0 | 0.00 | 0.00 | 0.00 | 66 | 1010.3 |
| 20260506120519 | 61 | 56 | 8.0 | 14.0 | 0.00 | 0.00 | 0.00 | 79 | 1010.3 |
| 20260506115919 | 63 | 60 | 7.0 | 14.0 | 0.00 | 0.00 | 0.00 | 81 | 1010.3 |
| 20260506115316 | 63 | 52 | 8.0 | 19.0 | 0.00 | 0.00 | 0.00 | 80 | 1010.1 |
| 20260506114717 | 63 | 40 | 7.0 | 19.0 | 0.00 | 0.00 | 0.00 | 80 | 1010.0 |
| 20260506114121 | 63 | 55 | 7.0 | 15.0 | 0.00 | 0.00 | 0.00 | 80 | 1010.0 |
| 20260506113518 | 63 | 37 | 8.0 | 15.0 | 0.00 | 0.00 | 0.00 | 80 | 1010.0 |
| 20260506112919 | 63 | 51 | 6.0 | 17.0 | 0.00 | 0.00 | 0.00 | 80 | 1010.0 |
| 20260506112319 | 63 | 57 | 9.0 | 17.0 | 0.00 | 0.00 | 0.00 | 80 | 1009.9 |
| 20260506111717 | 63 | 47 | 10.0 | 20.0 | 0.00 | 0.00 | 0.00 | 80 | 1009.8 |
| 20260506111116 | 63 | 43 | 13.0 | 20.0 | 0.00 | 0.00 | 0.00 | 80 | 1009.6 |
| 20260506110518 | 64 | 49 | 8.0 | 16.0 | 0.00 | 0.00 | 0.00 | 80 | 1009.6 |
| 20260506105916 | 64 | 33 | 10.0 | 17.0 | 0.00 | 0.00 | 0.00 | 80 | 1009.5 |
| 20260506105319 | 64 | 36 | 9.0 | 21.0 | 0.00 | 0.00 | 0.00 | 79 | 1009.5 |
| 20260506104729 | 64 | 38 | 10.0 | 21.0 | 0.00 | 0.00 | 0.00 | 79 | 1009.5 |
| 20260506104118 | 64 | 49 | 12.0 | 21.0 | 0.00 | 0.00 | 0.00 | 79 | 1009.5 |
| 20260506103518 | 64 | 39 | 13.0 | 20.0 | 0.00 | 0.00 | 0.00 | 79 | 1009.4 |
| 20260506102917 | 64 | 39 | 9.0 | 20.0 | 0.00 | 0.00 | 0.00 | 79 | 1009.3 |
| 20260506102319 | 0 | 0.0 | 0.0 | 0.00 | 0.00 | 0.00 | 1009.3 | ||
| 20260506101716 | 0 | 0.0 | 0.0 | 0.00 | 0.00 | 0.00 | 1009.4 | ||
| 20260506101116 | 0 | 0.0 | 0.0 | 0.00 | 0.00 | 0.00 | 1009.2 | ||
| 20260506100519 | 0 | 0.0 | 0.0 | 0.00 | 0.00 | 0.00 | 1009.3 | ||
| 20260506095918 | 0 | 0.0 | 0.0 | 0.00 | 0.00 | 0.00 | 1009.2 | ||
| 20260506095316 | 0 | 0.0 | 0.0 | 0.00 | 0.00 | 0.00 | 1009.3 | ||
| 20260506094718 | 0 | 0.0 | 0.0 | 0.00 | 0.00 | 0.00 | 1009.3 | ||
| 20260506094116 | 0 | 0.0 | 0.0 | 0.00 | 0.00 | 0.00 | 1009.3 | ||
| 20260506093520 | 0 | 0.0 | 0.0 | 0.00 | 0.00 | 0.00 | 1009.3 | ||
| 20260506092920 | 0 | 0.0 | 0.0 | 0.00 | 0.00 | 0.00 | 1009.3 | ||
| 20260506092320 | 0 | 0.0 | 0.0 | 0.00 | 0.00 | 0.00 | 1009.3 | ||
| 20260506091720 | 0 | 0.0 | 0.0 | 0.00 | 0.00 | 0.00 | 1009.4 | ||
| 20260506091116 | 0 | 0.0 | 0.0 | 0.00 | 0.00 | 0.00 | 1009.5 | ||
| 20260506090517 | 0 | 0.0 | 0.0 | 0.00 | 0.00 | 0.00 | 1009.5 | ||
| 20260506085916 | 0 | 0.0 | 0.0 | 0.00 | 0.00 | 0.00 | 1009.4 | ||
| 20260506085316 | 0 | 0.0 | 0.0 | 0.00 | 0.00 | 0.00 | 1009.5 | ||
| 20260506084717 | 0 | 0.0 | 0.0 | 0.00 | 0.00 | 0.00 | 1009.6 | ||
| 20260506084116 | 0 | 0.0 | 0.0 | 0.00 | 0.00 | 0.00 | 1009.5 | ||
| 20260506083519 | 0 | 0.0 | 0.0 | 0.00 | 0.00 | 0.00 | 1009.6 | ||
| 20260506082916 | 0 | 0.0 | 0.0 | 0.00 | 0.00 | 0.00 | 1009.5 | ||
| 20260506082316 | 0 | 0.0 | 0.0 | 0.00 | 0.00 | 0.00 | 1009.5 | ||
| 20260506081720 | 0 | 0.0 | 0.0 | 0.00 | 0.00 | 0.00 | 1009.6 | ||
| 20260506081116 | 0 | 0.0 | 0.0 | 0.00 | 0.00 | 0.00 | 1009.6 | ||
| 20260506080519 | 0 | 0.0 | 0.0 | 0.00 | 0.00 | 0.00 | 1009.5 | ||
| 20260506073520 | 0 | 0.0 | 0.0 | 0.00 | 0.00 | 0.00 | 1009.8 | ||
| 20260506072928 | 0 | 0.0 | 0.0 | 0.00 | 0.00 | 0.00 | 1009.7 | ||
| 20260506072317 | 0 | 0.0 | 0.0 | 0.00 | 0.00 | 0.00 | 1009.7 | ||
| 20260506071717 | 0 | 0.0 | 0.0 | 0.00 | 0.00 | 0.00 | 1009.8 | ||
| 20260506071132 | 0 | 0.0 | 0.0 | 0.00 | 0.00 | 0.00 | 1009.9 | ||
| 20260506070517 | 0 | 0.0 | 0.0 | 0.00 | 0.00 | 0.00 | 1009.9 | ||
| 20260506062328 | 67 | 49 | 9.0 | 9.0 | 0.00 | 0.00 | 0.00 | 1010.3 | |
| 20260506061941 | 67 | 49 | 9.0 | 14.0 | 0.00 | 0.00 | 0.00 | 66 | 1010.4 |
| 20260506061118 | 67 | 39 | 8.0 | 14.0 | 0.00 | 0.00 | 0.00 | 67 | 1010.5 |
| 20260506060623 | 67 | 32 | 8.0 | 14.0 | 0.00 | 0.00 | 0.00 | 66 | 1010.5 |
| 20260506051158 | 67 | 41 | 7.0 | 14.0 | 0.00 | 0.00 | 0.00 | 65 | 1010.7 |
| 20260506050531 | 67 | 42 | 6.0 | 14.0 | 0.00 | 0.00 | 0.00 | 64 | 1010.7 |
| 20260506044716 | 68 | 42 | 8.0 | 16.0 | 0.00 | 0.00 | 0.00 | 63 | 1010.7 |
| 20260506044117 | 68 | 38 | 11.0 | 16.0 | 0.00 | 0.00 | 0.00 | 63 | 1010.7 |
| 20260506043519 | 67 | 33 | 8.0 | 15.0 | 0.00 | 0.00 | 0.00 | 63 | 1010.8 |
| 20260506042919 | 67 | 35 | 6.0 | 13.0 | 0.00 | 0.00 | 0.00 | 64 | 1010.8 |
| 20260506042318 | 67 | 37 | 7.0 | 13.0 | 0.00 | 0.00 | 0.00 | 64 | 1010.8 |
| 20260506041715 | 66 | 36 | 5.0 | 13.0 | 0.00 | 0.00 | 0.00 | 65 | 1010.9 |
| 20260506041151 | 66 | 36 | 7.0 | 12.0 | 0.00 | 0.00 | 0.00 | 65 | 1010.8 |
| 20260506040522 | 66 | 29 | 3.0 | 9.0 | 0.00 | 0.00 | 0.00 | 65 | 1010.8 |
| 20260506040039 | 66 | 31 | 3.0 | 8.0 | 0.00 | 0.00 | 0.00 | 65 | 1010.9 |
| 20260506035319 | 66 | 32 | 4.0 | 8.0 | 0.00 | 0.00 | 0.00 | 64 | 1010.8 |
| 20260506034803 | 66 | 31 | 4.0 | 8.0 | 0.00 | 0.00 | 0.00 | 64 | 1010.9 |
| 20260506034215 | 66 | 31 | 3.0 | 7.0 | 0.00 | 0.00 | 0.00 | 64 | 1010.8 |
| 20260506033521 | 68 | 31 | 3.0 | 12.0 | 0.00 | 0.00 | 0.00 | 61 | 1010.7 |
| 20260506032316 | 68 | 35 | 6.0 | 14.0 | 0.00 | 0.00 | 0.00 | 59 | 1010.7 |
| 20260506031721 | 68 | 45 | 8.0 | 14.0 | 0.00 | 0.00 | 0.00 | 59 | 1010.7 |
| 20260506031418 | 68 | 51 | 8.0 | 13.0 | 0.00 | 0.00 | 0.00 | 59 | 1010.7 |
| 20260506030609 | 68 | 47 | 6.0 | 13.0 | 0.00 | 0.00 | 0.00 | 59 | 1010.6 |
| 20260506025925 | 68 | 43 | 6.0 | 13.0 | 0.00 | 0.00 | 0.00 | 59 | 1010.6 |
| 20260506025746 | 68 | 35 | 5.0 | 12.0 | 0.00 | 0.00 | 0.00 | 61 | 1010.6 |
| 20260506025324 | 68 | 40 | 6.0 | 12.0 | 0.00 | 0.00 | 0.00 | 59 | 1010.6 |
| 20260506024728 | 68 | 37 | 6.0 | 13.0 | 0.00 | 0.00 | 0.00 | 60 | 1010.7 |
| 20260506024314 | 68 | 35 | 5.0 | 12.0 | 0.00 | 0.00 | 0.00 | 61 | 1010.6 |
| 20260506023534 | 68 | 16 | 6.0 | 11.0 | 0.00 | 0.00 | 0.00 | 61 | 1010.6 |
| 20260506022719 | 67 | 30 | 6.0 | 11.0 | 0.00 | 0.00 | 0.00 | 62 | 1010.7 |
| 20260506021834 | 68 | 40 | 4.0 | 11.0 | 0.00 | 0.00 | 0.00 | 61 | 1010.7 |
| 20260506021118 | 68 | 30 | 4.0 | 10.0 | 0.00 | 0.00 | 0.00 | 61 | 1010.7 |
| 20260506020748 | 68 | 30 | 5.0 | 10.0 | 0.00 | 0.00 | 0.00 | 60 | 1010.7 |
| 20260506020020 | 68 | 22 | 6.0 | 10.0 | 0.00 | 0.00 | 0.00 | 60 | 1010.7 |
| 20260506015318 | 68 | 35 | 5.0 | 10.0 | 0.00 | 0.00 | 0.00 | 59 | 1010.6 |
| 20260506014717 | 68 | 28 | 3.0 | 10.0 | 0.00 | 0.00 | 0.00 | 59 | 1010.6 |
| 20260506014116 | 69 | 25 | 6.0 | 10.0 | 0.00 | 0.00 | 0.00 | 58 | 1010.5 |
| 20260506013527 | 69 | 28 | 5.0 | 9.0 | 0.00 | 0.00 | 0.00 | 58 | 1010.4 |
| 20260506012925 | 69 | 29 | 4.0 | 8.0 | 0.00 | 0.00 | 0.00 | 58 | 1010.4 |
| 20260506012317 | 69 | 36 | 5.0 | 8.0 | 0.00 | 0.00 | 0.00 | 57 | 1010.4 |
| 20260506011717 | 69 | 33 | 4.0 | 10.0 | 0.00 | 0.00 | 0.00 | 57 | 1010.3 |
| 20260506011117 | 70 | 30 | 5.0 | 10.0 | 0.00 | 0.00 | 0.00 | 56 | 1010.2 |
| 20260506010521 | 70 | 20 | 6.0 | 11.0 | 0.00 | 0.00 | 0.00 | 55 | 1010.1 |
| 20260506005916 | 70 | 33 | 5.0 | 12.0 | 0.00 | 0.00 | 0.00 | 54 | 1010.1 |
| 20260506005316 | 71 | 35 | 5.0 | 11.0 | 0.00 | 0.00 | 0.00 | 54 | 1009.9 |
| 20260506004715 | 71 | 22 | 5.0 | 11.0 | 0.00 | 0.00 | 0.00 | 53 | 1009.9 |
| 20260506004146 | 71 | 21 | 5.0 | 11.0 | 0.00 | 0.00 | 0.00 | 52 | 1009.8 |
| 20260506003521 | 72 | 26 | 5.0 | 12.0 | 0.00 | 0.00 | 0.00 | 50 | 1009.7 |
| 20260506002915 | 73 | 30 | 5.0 | 12.0 | 0.00 | 0.00 | 0.00 | 49 | 1009.7 |
| 20260506002316 | 73 | 39 | 5.0 | 14.0 | 0.00 | 0.00 | 0.00 | 48 | 1009.7 |
| 20260506001721 | 73 | 41 | 9.0 | 15.0 | 0.00 | 0.00 | 0.00 | 47 | 1009.6 |
| 20260506001116 | 74 | 34 | 7.0 | 15.0 | 0.00 | 0.00 | 0.00 | 47 | 1009.6 |
| 20260506000520 | 74 | 26 | 5.0 | 12.0 | 0.00 | 0.00 | 0.00 | 47 | 1009.6 |
| 20260505235916 | 74 | 32 | 7.0 | 16.0 | 0.00 | 0.00 | 0.00 | 46 | 1009.6 |
| 20260505235324 | 74 | 46 | 9.0 | 16.0 | 0.00 | 0.00 | 0.00 | 46 | 1009.5 |
| 20260505234720 | 75 | 42 | 7.0 | 15.0 | 0.00 | 0.00 | 0.00 | 46 | 1009.4 |
| 20260505234116 | 75 | 48 | 8.0 | 16.0 | 0.00 | 0.00 | 0.00 | 46 | 1009.5 |
| 20260505233518 | 75 | 40 | 8.0 | 16.0 | 0.00 | 0.00 | 0.00 | 46 | 1009.3 |
| 20260505232916 | 75 | 41 | 7.0 | 16.0 | 0.00 | 0.00 | 0.00 | 46 | 1009.2 |
| 20260505232316 | 75 | 52 | 9.0 | 16.0 | 0.00 | 0.00 | 0.00 | 46 | 1009.1 |
| 20260505231715 | 75 | 39 | 7.0 | 16.0 | 0.00 | 0.00 | 0.00 | 47 | 1009.1 |
| 20260505231135 | 76 | 31 | 8.0 | 14.0 | 0.00 | 0.00 | 0.00 | 47 | 1009.1 |
| 20260505230518 | 76 | 33 | 8.0 | 15.0 | 0.00 | 0.00 | 0.00 | 47 | 1009.1 |
| 20260505225915 | 77 | 32 | 7.0 | 17.0 | 0.00 | 0.00 | 0.00 | 46 | 1009.1 |
| 20260505225316 | 77 | 40 | 8.0 | 17.0 | 0.00 | 0.00 | 0.00 | 46 | 1009.1 |
| 20260505224734 | 78 | 40 | 8.0 | 21.0 | 0.00 | 0.00 | 0.00 | 45 | 1009.1 |
| 20260505224136 | 78 | 44 | 11.0 | 21.0 | 0.00 | 0.00 | 0.00 | 44 | 1009.0 |
| 20260505223522 | 78 | 43 | 10.0 | 23.0 | 0.00 | 0.00 | 0.00 | 44 | 1009.0 |
| 20260505222918 | 78 | 34 | 11.0 | 23.0 | 0.00 | 0.00 | 0.00 | 44 | 1009.1 |
| 20260505222315 | 78 | 46 | 12.0 | 22.0 | 0.00 | 0.00 | 0.00 | 44 | 1009.1 |